,,Stat6,,Stat2,,Stat8,,Stat9,,Stat10,,Wind1,,Wind1,
time,status,PA1M_AVG,status,PR1M_SUM,status,RH1M_AVG,status,SR1M_AVG,status,TA1M_AVG,status,W1dAve1m,status,W1sAve1m,
2007-09-25, 00:00:01,VALID,917.249,VALID,0,VALID,100,VALID,0,VALID,20.0357,VALID,165,VALID,0.416493,
2007-09-25, 00:01:01,VALID,917.209,VALID,0,VALID,100,VALID,-0.0339617,VALID,20.0392,VALID,165,VALID,0.387962,
2007-09-25, 00:02:00,VALID,917.19,VALID,0,VALID,100,VALID,-0.0169808,VALID,20.0293,VALID,165,VALID,0.159108,
2007-09-25, 00:03:00,VALID,917.169,VALID,0,VALID,100,VALID,0,VALID,20.0233,VALID,165,VALID,0.0109747,
2007-09-25, 00:04:00,VALID,917.155,VALID,0,VALID,100,VALID,-0.0509425,VALID,19.9811,VALID,165,VALID,0.112282,
2007-09-25, 00:05:00,VALID,917.148,VALID,0,VALID,100,VALID,-0.0339617,VALID,19.9619,VALID,113,VALID,0.853609,
2007-09-25, 00:06:01,VALID,917.142,VALID,0,VALID,100,VALID,-0.0339617,VALID,19.9554,VALID,98,VALID,0.701308,
2007-09-25, 00:07:01,VALID,917.126,VALID,0,VALID,100,VALID,0,VALID,19.9489,VALID,119,VALID,0.788491,
2007-09-25, 00:08:01,VALID,917.108,VALID,0,VALID,100,VALID,-0.0169808,VALID,19.9524,VALID,120,VALID,0.723837,
2007-09-25, 00:09:00,VALID,917.089,VALID,0,VALID,100,VALID,-0.0169808,VALID,19.9319,VALID,120,VALID,0.646307,
2007-09-25, 00:10:01,VALID,917.062,VALID,0,VALID,100,VALID,0,VALID,19.9249,VALID,120,VALID,0.608842,
2007-09-25, 00:11:01,VALID,917.04,VALID,0,VALID,100,VALID,0,VALID,19.9025,VALID,120,VALID,0.720567,
2007-09-25, 00:12:01,VALID,917.018,VALID,0,VALID,100,VALID,0,VALID,19.883,VALID,106,VALID,0.829055,
2007-09-25, 00:13:01,VALID,916.978,VALID,0,VALID,100,VALID,-0.0169808,VALID,19.8967,VALID,100,VALID,0.971608,
2007-09-25, 00:14:00,VALID,916.958,VALID,0,VALID,100,VALID,0,VALID,19.8827,VALID,103,VALID,0.960938,
2007-09-25, 00:15:00,VALID,916.957,VALID,0,VALID,100,VALID,-0.0339617,VALID,19.8573,VALID,106,VALID,0.675694,
2007-09-25, 00:16:00,VALID,916.936,VALID,0,VALID,100,VALID,-0.0339617,VALID,19.8318,VALID,106,VALID,0.435138,
2007-09-25, 00:17:00,VALID,916.952,VALID,0,VALID,100,VALID,-0.0169808,VALID,19.8154,VALID,106,VALID,0.389737,
2007-09-25, 00:18:00,VALID,916.943,VALID,0,VALID,100,VALID,-0.0169808,VALID,19.8026,VALID,106,VALID,0.339096,
2007-09-25, 00:19:01,VALID,916.913,VALID,0,VALID,100,VALID,0,VALID,19.8024,VALID,106,VALID,0.478609,
2007-09-25, 00:20:01,VALID,916.883,VALID,0,VALID,100,VALID,-0.0169808,VALID,19.8151,VALID,125,VALID,0.601953,
2007-09-25, 00:21:01,VALID,916.86,VALID,0,VALID,100,VALID,0,VALID,19.8246,VALID,126,VALID,0.452567,
2007-09-25, 00:22:01,VALID,916.83,VALID,0,VALID,100,VALID,-0.0169808,VALID,19.8278,VALID,126,VALID,0.451349,
2007-09-25, 00:23:01,VALID,916.794,VALID,0,VALID,100,VALID,0,VALID,19.8406,VALID,126,VALID,0.444568,
2007-09-25, 00:24:00,VALID,916.785,VALID,0,VALID,100,VALID,0,VALID,19.8603,VALID,126,VALID,0.379687,
2007-09-25, 00:25:00,VALID,916.782,VALID,0,VALID,100,VALID,0,VALID,19.857,VALID,126,VALID,0.0852108,
2007-09-25, 00:26:01,VALID,916.79,VALID,0,VALID,100,VALID,0,VALID,19.8538,VALID,126,VALID,0.115104,
2007-09-25, 00:27:00,VALID,916.79,VALID,0,VALID,100,VALID,-0.0169808,VALID,19.8503,VALID,126,VALID,0.126715,
2007-09-25, 00:28:01,VALID,916.799,VALID,0,VALID,100,VALID,0.0339617,VALID,19.8341,VALID,126,VALID,0.163281,
2007-09-25, 00:29:01,VALID,916.806,VALID,0,VALID,100,VALID,0.0169808,VALID,19.7919,VALID,126,VALID,0.375,
2007-09-25, 00:30:01,VALID,916.811,VALID,0,VALID,100,VALID,0.0339617,VALID,19.7687,VALID,126,VALID,0.221227,
2007-09-25, 00:31:01,VALID,916.798,VALID,0,VALID,100,VALID,0.0339617,VALID,19.7365,VALID,131,VALID,0.405506,
2007-09-25, 00:32:01,VALID,916.81,VALID,0,VALID,100,VALID,0.0339617,VALID,19.7173,VALID,144,VALID,0.791969,
2007-09-25, 00:33:01,VALID,916.788,VALID,0,VALID,100,VALID,0.0169808,VALID,19.6976,VALID,144,VALID,0.749047,
2007-09-25, 00:34:01,VALID,916.806,VALID,0,VALID,100,VALID,0.0339617,VALID,19.6853,VALID,145,VALID,0.76048,
2007-09-25, 00:35:00,VALID,916.806,VALID,0,VALID,100,VALID,0.0169808,VALID,19.6556,VALID,149,VALID,0.728413,
2007-09-25, 00:36:00,VALID,916.819,VALID,0,VALID,100,VALID,0,VALID,19.6459,VALID,162,VALID,0.552455,
2007-09-25, 00:37:00,VALID,916.85,VALID,0,VALID,100,VALID,0,VALID,19.6299,VALID,172,VALID,0.628049,
2007-09-25, 00:38:00,VALID,916.862,VALID,0,VALID,100,VALID,0.0169808,VALID,19.6135,VALID,188,VALID,0.651486,
2007-09-25, 00:39:00,VALID,916.864,VALID,0,VALID,100,VALID,0.0169808,VALID,19.6005,VALID,186,VALID,0.446265,
2007-09-25, 00:40:00,VALID,916.874,VALID,0,VALID,100,VALID,0,VALID,19.581,VALID,187,VALID,0.759766,
2007-09-25, 00:41:00,VALID,916.859,VALID,0,VALID,100,VALID,0.0339617,VALID,19.568,VALID,187,VALID,0.554688,
2007-09-25, 00:42:00,VALID,916.848,VALID,0,VALID,100,VALID,0.0169808,VALID,19.5486,VALID,187,VALID,0.516602,
2007-09-25, 00:43:00,VALID,916.828,VALID,0,VALID,100,VALID,0.0169808,VALID,19.5421,VALID,187,VALID,0.460938,
2007-09-25, 00:44:00,VALID,916.807,VALID,0,VALID,100,VALID,0,VALID,19.5259,VALID,186,VALID,0.246652,
2007-09-25, 00:45:00,VALID,916.793,VALID,0,VALID,100,VALID,0.0169808,VALID,19.5164,VALID,186,VALID,0.081032,
2007-09-25, 00:46:00,VALID,916.798,VALID,0,VALID,100,VALID,0.0339617,VALID,19.4902,VALID,187,VALID,0.0259146,
2007-09-25, 00:47:00,VALID,916.807,VALID,0,VALID,100,VALID,0,VALID,19.4575,VALID,187,VALID,0.0992543,
2007-09-25, 00:48:00,VALID,916.811,VALID,0,VALID,100,VALID,0,VALID,19.4675,VALID,187,VALID,0.233259,
2007-09-25, 00:49:00,VALID,916.816,VALID,0,VALID,100,VALID,0,VALID,19.4642,VALID,187,VALID,0.225074,
2007-09-25, 00:50:00,VALID,916.82,VALID,0,VALID,100,VALID,0,VALID,19.4712,VALID,186,VALID,0.0383185,
2007-09-25, 00:51:00,VALID,916.835,VALID,0,VALID,100,VALID,0.0169808,VALID,19.4705,VALID,187,VALID,0,
2007-09-25, 00:52:00,VALID,916.839,VALID,0,VALID,100,VALID,0.0169808,VALID,19.4742,VALID,187,VALID,0,
2007-09-25, 00:53:00,VALID,916.847,VALID,0,VALID,100,VALID,0.0339617,VALID,19.4967,VALID,187,VALID,0,
2007-09-25, 00:54:00,VALID,916.838,VALID,0,VALID,100,VALID,0.0169808,VALID,19.4707,VALID,187,VALID,0,
2007-09-25, 00:55:00,VALID,916.833,VALID,0,VALID,100,VALID,-0.0169808,VALID,19.4612,VALID,187,VALID,0,
2007-09-25, 00:56:00,VALID,916.828,VALID,0,VALID,100,VALID,0.0169808,VALID,19.435,VALID,186,VALID,0.316679,
2007-09-25, 00:57:00,VALID,916.801,VALID,0,VALID,100,VALID,0.0169808,VALID,19.3831,VALID,98,VALID,0.485677,
2007-09-25, 00:58:00,VALID,916.769,VALID,0,VALID,100,VALID,0,VALID,19.3372,VALID,38,VALID,0.705078,
2007-09-25, 00:59:00,VALID,916.731,VALID,0,VALID,100,VALID,-0.0169808,VALID,19.3345,VALID,47,VALID,0.592478,
2007-09-25, 01:00:00,VALID,916.688,VALID,0,VALID,100,VALID,0,VALID,19.3637,VALID,63,VALID,0.837798,
2007-09-25, 01:01:00,VALID,916.669,VALID,0,VALID,100,VALID,0,VALID,19.3729,VALID,63,VALID,0.555259,
2007-09-25, 01:02:00,VALID,916.635,VALID,0,VALID,100,VALID,0,VALID,19.4091,VALID,81,VALID,0.583651,
2007-09-25, 01:03:00,VALID,916.604,VALID,0,VALID,100,VALID,0.0339617,VALID,19.4577,VALID,99,VALID,0.465216,
2007-09-25, 01:04:00,VALID,916.574,VALID,0,VALID,100,VALID,0,VALID,19.4513,VALID,130,VALID,0.544588,
2007-09-25, 01:05:00,VALID,916.547,VALID,0,VALID,100,VALID,0.0169808,VALID,19.4545,VALID,156,VALID,0.700763,
2007-09-25, 01:06:00,VALID,916.52,VALID,0,VALID,100,VALID,0.0339617,VALID,19.448,VALID,160,VALID,0.858994,
2007-09-25, 01:07:00,VALID,916.491,VALID,0,VALID,100,VALID,0.0169808,VALID,19.4804,VALID,159,VALID,0.734738,
2007-09-25, 01:08:00,VALID,916.486,VALID,0,VALID,100,VALID,0,VALID,19.5196,VALID,159,VALID,0.524709,
2007-09-25, 01:09:00,VALID,916.463,VALID,0,VALID,100,VALID,0,VALID,19.565,VALID,159,VALID,0.27309,
2007-09-25, 01:10:00,VALID,916.453,VALID,0,VALID,100,VALID,0.0339617,VALID,19.609,VALID,159,VALID,0.108487,
2007-09-25, 01:11:00,VALID,916.474,VALID,0,VALID,100,VALID,0.0339617,VALID,19.6619,VALID,159,VALID,0,
2007-09-25, 01:12:00,VALID,916.498,VALID,0,VALID,100,VALID,0.0169808,VALID,19.6913,VALID,159,VALID,0,
2007-09-25, 01:13:00,VALID,916.532,VALID,0,VALID,100,VALID,0.0339617,VALID,19.727,VALID,159,VALID,0,
2007-09-25, 01:14:00,VALID,916.581,VALID,0,VALID,100,VALID,0.0339617,VALID,19.7397,VALID,159,VALID,0,
2007-09-25, 01:15:00,VALID,916.601,VALID,0,VALID,100,VALID,0.0169808,VALID,19.7659,VALID,159,VALID,0.113009,
2007-09-25, 01:16:00,VALID,916.626,VALID,0,VALID,100,VALID,0,VALID,19.7919,VALID,159,VALID,0.350419,
2007-09-25, 01:17:00,VALID,916.635,VALID,0,VALID,100,VALID,0.0169808,VALID,19.8111,VALID,159,VALID,0.273065,
2007-09-25, 01:18:00,VALID,916.638,VALID,0,VALID,100,VALID,0.0339617,VALID,19.8313,VALID,159,VALID,0.154726,
2007-09-25, 01:19:00,VALID,916.646,VALID,0,VALID,100,VALID,0,VALID,19.8535,VALID,159,VALID,0.00669643,
2007-09-25, 01:20:00,VALID,916.641,VALID,0,VALID,100,VALID,0.0509425,VALID,19.8763,VALID,159,VALID,0,
2007-09-25, 01:21:00,VALID,916.63,VALID,0,VALID,100,VALID,0.0169808,VALID,19.8955,VALID,159,VALID,0,
2007-09-25, 01:22:00,VALID,916.642,VALID,0,VALID,100,VALID,-0.0509425,VALID,19.9227,VALID,159,VALID,0,
2007-09-25, 01:23:00,VALID,916.65,VALID,0,VALID,100,VALID,-0.0169808,VALID,19.9314,VALID,159,VALID,0,
2007-09-25, 01:24:00,VALID,916.652,VALID,0,VALID,100,VALID,-0.0169808,VALID,19.9124,VALID,156,VALID,0.202762,
2007-09-25, 01:25:00,VALID,916.639,VALID,0,VALID,100,VALID,-0.0339617,VALID,19.8927,VALID,119,VALID,0.361536,
2007-09-25, 01:26:00,VALID,916.625,VALID,0,VALID,100,VALID,-0.0339617,VALID,19.8965,VALID,85,VALID,0.657552,
2007-09-25, 01:27:00,VALID,916.601,VALID,0,VALID,100,VALID,-0.0169808,VALID,19.903,VALID,42,VALID,1.00213,
2007-09-25, 01:28:00,VALID,916.589,VALID,0,VALID,100,VALID,-0.0169808,VALID,19.9062,VALID,31,VALID,0.999822,
2007-09-25, 01:29:00,VALID,916.565,VALID,0,VALID,100,VALID,0,VALID,19.9027,VALID,34,VALID,1.21113,
2007-09-25, 01:30:00,VALID,916.547,VALID,0,VALID,100,VALID,-0.0169808,VALID,19.896,VALID,32,VALID,1.40282,
2007-09-25, 01:31:00,VALID,916.526,VALID,0,VALID,100,VALID,-0.0169808,VALID,19.903,VALID,31,VALID,1.44863,
2007-09-25, 01:32:00,VALID,916.537,VALID,0,VALID,100,VALID,-0.0509425,VALID,19.9065,VALID,22,VALID,1.09969,
2007-09-25, 01:33:00,VALID,916.551,VALID,0,VALID,100,VALID,-0.0169808,VALID,19.89,VALID,19,VALID,1.20979,
2007-09-25, 01:34:00,VALID,916.576,VALID,0,VALID,100,VALID,-0.0339617,VALID,19.8635,VALID,17,VALID,1.06002,
2007-09-25, 01:35:00,VALID,916.582,VALID,0,VALID,100,VALID,-0.0509425,VALID,19.8411,VALID,6,VALID,0.739955,
2007-09-25, 01:36:00,VALID,916.6,VALID,0,VALID,100,VALID,-0.0679233,VALID,19.8381,VALID,6,VALID,0.650618,
2007-09-25, 01:37:00,VALID,916.606,VALID,0,VALID,100,VALID,-0.0679233,VALID,19.8348,VALID,9,VALID,0.62391,
2007-09-25, 01:38:00,VALID,916.595,VALID,0,VALID,100,VALID,-0.0679233,VALID,19.8386,VALID,22,VALID,0.840216,
2007-09-25, 01:39:00,VALID,916.58,VALID,0,VALID,100,VALID,-0.0339617,VALID,19.8278,VALID,19,VALID,0.3508,
2007-09-25, 01:40:00,VALID,916.569,VALID,0,VALID,100,VALID,-0.0339617,VALID,19.8316,VALID,19,VALID,0.252858,
2007-09-25, 01:41:00,VALID,916.542,VALID,0,VALID,100,VALID,-0.0679233,VALID,19.8411,VALID,19,VALID,0.0957485,
2007-09-25, 01:42:00,VALID,916.511,VALID,0,VALID,100,VALID,-0.0169808,VALID,19.8633,VALID,19,VALID,0.0784801,
2007-09-25, 01:43:00,VALID,916.495,VALID,0,VALID,100,VALID,-0.0509425,VALID,19.88,VALID,19,VALID,0.0100991,
2007-09-25, 01:44:00,VALID,916.494,VALID,0,VALID,100,VALID,-0.0169808,VALID,19.8995,VALID,19,VALID,0.0901163,
2007-09-25, 01:45:00,VALID,916.503,VALID,0,VALID,100,VALID,-0.0339617,VALID,19.9387,VALID,19,VALID,0.120833,
2007-09-25, 01:46:00,VALID,916.519,VALID,0,VALID,100,VALID,-0.0339617,VALID,19.9576,VALID,19,VALID,0.0984003,
2007-09-25, 01:47:00,VALID,916.543,VALID,0,VALID,100,VALID,-0.0169808,VALID,19.9711,VALID,19,VALID,0.555804,
2007-09-25, 01:48:00,VALID,916.562,VALID,0,VALID,100,VALID,-0.0169808,VALID,19.9284,VALID,19,VALID,0.694949,
2007-09-25, 01:49:00,VALID,916.581,VALID,0,VALID,100,VALID,-0.0339617,VALID,19.8992,VALID,20,VALID,0.969151,
2007-09-25, 01:50:00,VALID,916.573,VALID,0,VALID,100,VALID,-0.0339617,VALID,19.8613,VALID,26,VALID,1.21801,
2007-09-25, 01:51:00,VALID,916.565,VALID,0,VALID,100,VALID,-0.0509425,VALID,19.8448,VALID,25,VALID,1.14367,
2007-09-25, 01:52:00,VALID,916.535,VALID,0,VALID,100,VALID,-0.0339617,VALID,19.8313,VALID,17,VALID,0.505907,
2007-09-25, 01:53:00,VALID,916.5,VALID,0,VALID,100,VALID,-0.0509425,VALID,19.8346,VALID,18,VALID,0.338663,
2007-09-25, 01:54:00,VALID,916.469,VALID,0,VALID,100,VALID,-0.0679233,VALID,19.8343,VALID,18,VALID,0.147135,
2007-09-25, 01:55:00,VALID,916.462,VALID,0,VALID,100,VALID,-0.0509425,VALID,19.8513,VALID,18,VALID,0,
2007-09-25, 01:56:00,VALID,916.452,VALID,0,VALID,100,VALID,-0.0849042,VALID,19.8448,VALID,18,VALID,0,
2007-09-25, 01:57:00,VALID,916.439,VALID,0,VALID,100,VALID,-0.0509425,VALID,19.8348,VALID,18,VALID,0.0701069,
2007-09-25, 01:58:00,VALID,916.433,VALID,0,VALID,100,VALID,-0.0339617,VALID,19.8608,VALID,20,VALID,0.456032,
2007-09-25, 01:59:00,VALID,916.43,VALID,0,VALID,100,VALID,-0.0509425,VALID,19.8703,VALID,28,VALID,0.584028,
2007-09-25, 02:00:00,VALID,916.431,VALID,0,VALID,100,VALID,-0.101885,VALID,19.8575,VALID,28,VALID,0.25651,
2007-09-25, 02:01:00,VALID,916.423,VALID,0,VALID,100,VALID,-0.0509425,VALID,19.8253,VALID,28,VALID,0.132227,
2007-09-25, 02:02:00,VALID,916.397,VALID,0,VALID,100,VALID,-0.0509425,VALID,19.8346,VALID,28,VALID,0.134816,
2007-09-25, 02:03:00,VALID,916.355,VALID,0,VALID,100,VALID,-0.101885,VALID,19.8251,VALID,28,VALID,0,
2007-09-25, 02:04:00,VALID,916.326,VALID,0,VALID,100,VALID,-0.101885,VALID,19.8223,VALID,28,VALID,0,
2007-09-25, 02:05:00,VALID,916.294,VALID,0,VALID,100,VALID,-0.0509425,VALID,19.8094,VALID,28,VALID,0,
2007-09-25, 02:06:00,VALID,916.271,VALID,0,VALID,100,VALID,-0.0339617,VALID,19.8253,VALID,28,VALID,0,
2007-09-25, 02:07:00,VALID,916.255,VALID,0,VALID,100,VALID,-0.0339617,VALID,19.8416,VALID,28,VALID,0.0967262,
2007-09-25, 02:08:00,VALID,916.255,VALID,0,VALID,100,VALID,-0.0509425,VALID,19.8383,VALID,28,VALID,0.205859,
2007-09-25, 02:09:00,VALID,916.256,VALID,0,VALID,100,VALID,-0.101885,VALID,19.8323,VALID,28,VALID,0.294829,
2007-09-25, 02:10:00,VALID,916.269,VALID,0,VALID,100,VALID,-0.0509425,VALID,19.8159,VALID,28,VALID,0.359553,
2007-09-25, 02:11:00,VALID,916.258,VALID,0,VALID,100,VALID,-0.0679233,VALID,19.7994,VALID,28,VALID,0.145089,
2007-09-25, 02:12:00,VALID,916.243,VALID,0,VALID,100,VALID,-0.0849042,VALID,19.7899,VALID,28,VALID,0.0432546,
2007-09-25, 02:13:00,VALID,916.22,VALID,0,VALID,100,VALID,-0.101885,VALID,19.7902,VALID,28,VALID,0.0514482,
2007-09-25, 02:14:00,VALID,916.186,VALID,0,VALID,100,VALID,-0.0679233,VALID,19.7862,VALID,28,VALID,0,
2007-09-25, 02:15:00,VALID,916.155,VALID,0,VALID,100,VALID,-0.0509425,VALID,19.7961,VALID,50,VALID,0.200868,
2007-09-25, 02:16:00,VALID,916.157,VALID,0,VALID,100,VALID,-0.0509425,VALID,19.7964,VALID,71,VALID,0.185082,
2007-09-25, 02:17:00,VALID,916.131,VALID,0,VALID,100,VALID,-0.0849042,VALID,19.7862,VALID,71,VALID,0,
2007-09-25, 02:18:00,VALID,916.124,VALID,0,VALID,100,VALID,-0.0509425,VALID,19.7964,VALID,71,VALID,0,
2007-09-25, 02:19:00,VALID,916.136,VALID,0,VALID,100,VALID,-0.0679233,VALID,19.7961,VALID,71,VALID,0,
2007-09-25, 02:20:00,VALID,916.137,VALID,0,VALID,100,VALID,-0.0169808,VALID,19.7859,VALID,71,VALID,0.144159,
2007-09-25, 02:21:00,VALID,916.167,VALID,0,VALID,100,VALID,-0.0509425,VALID,19.7867,VALID,71,VALID,0.295201,
2007-09-25, 02:22:00,VALID,916.186,VALID,0,VALID,100,VALID,-0.0169808,VALID,19.7759,VALID,71,VALID,0.0411005,
2007-09-25, 02:23:00,VALID,916.204,VALID,0,VALID,100,VALID,-0.0169808,VALID,19.7827,VALID,71,VALID,0,
2007-09-25, 02:24:00,VALID,916.218,VALID,0,VALID,100,VALID,-0.0169808,VALID,19.7694,VALID,71,VALID,0,
2007-09-25, 02:25:00,VALID,916.216,VALID,0,VALID,100,VALID,-0.0339617,VALID,19.7694,VALID,71,VALID,0,
2007-09-25, 02:26:00,VALID,916.205,VALID,0,VALID,100,VALID,-0.0169808,VALID,19.7692,VALID,71,VALID,0,
2007-09-25, 02:27:00,VALID,916.185,VALID,0,VALID,100,VALID,0,VALID,19.7727,VALID,71,VALID,0.00434028,
2007-09-25, 02:28:00,VALID,916.175,VALID,0,VALID,100,VALID,0,VALID,19.7497,VALID,71,VALID,0.322359,
2007-09-25, 02:29:00,VALID,916.168,VALID,0,VALID,100,VALID,0.0169808,VALID,19.7205,VALID,71,VALID,0.50372,
2007-09-25, 02:30:00,VALID,916.151,VALID,0,VALID,100,VALID,0,VALID,19.6816,VALID,71,VALID,0.623633,
2007-09-25, 02:31:00,VALID,916.148,VALID,0,VALID,100,VALID,-0.0169808,VALID,19.6556,VALID,71,VALID,0.729288,
2007-09-25, 02:32:00,VALID,916.148,VALID,0,VALID,100,VALID,0,VALID,19.6234,VALID,76,VALID,0.631747,
2007-09-25, 02:33:00,VALID,916.158,VALID,0,VALID,100,VALID,0,VALID,19.578,VALID,92,VALID,0.767531,
2007-09-25, 02:34:00,VALID,916.161,VALID,0,VALID,100,VALID,-0.0169808,VALID,19.5393,VALID,103,VALID,0.65346,
2007-09-25, 02:35:00,VALID,916.175,VALID,0,VALID,100,VALID,0,VALID,19.5231,VALID,119,VALID,0.476017,
2007-09-25, 02:36:00,VALID,916.193,VALID,0,VALID,100,VALID,-0.0169808,VALID,19.5032,VALID,131,VALID,0.401526,
2007-09-25, 02:37:00,VALID,916.195,VALID,0,VALID,100,VALID,-0.0169808,VALID,19.5032,VALID,131,VALID,0.531076,
2007-09-25, 02:38:00,VALID,916.211,VALID,0,VALID,100,VALID,-0.0169808,VALID,19.5064,VALID,131,VALID,0.572852,
2007-09-25, 02:39:00,VALID,916.223,VALID,0,VALID,100,VALID,-0.0169808,VALID,19.5224,VALID,142,VALID,0.474144,
2007-09-25, 02:40:00,VALID,916.248,VALID,0,VALID,100,VALID,0,VALID,19.5186,VALID,136,VALID,0.588086,
2007-09-25, 02:41:00,VALID,916.26,VALID,0,VALID,100,VALID,0,VALID,19.5518,VALID,125,VALID,0.328311,
2007-09-25, 02:42:00,VALID,916.291,VALID,0,VALID,100,VALID,0,VALID,19.5616,VALID,93,VALID,0.433949,
2007-09-25, 02:43:00,VALID,916.307,VALID,0,VALID,100,VALID,0,VALID,19.5683,VALID,54,VALID,0.667259,
2007-09-25, 02:44:00,VALID,916.32,VALID,0,VALID,100,VALID,0,VALID,19.5713,VALID,54,VALID,0.668324,
2007-09-25, 02:45:00,VALID,916.331,VALID,0,VALID,100,VALID,-0.0169808,VALID,19.5583,VALID,57,VALID,0.731831,
2007-09-25, 02:46:00,VALID,916.335,VALID,0,VALID,100,VALID,0,VALID,19.5291,VALID,50,VALID,0.674237,
2007-09-25, 02:47:00,VALID,916.338,VALID,0,VALID,100,VALID,0,VALID,19.5191,VALID,59,VALID,0.49907,
2007-09-25, 02:48:00,VALID,916.343,VALID,0,VALID,100,VALID,0,VALID,19.5194,VALID,61,VALID,0.327943,
2007-09-25, 02:49:00,VALID,916.352,VALID,0,VALID,100,VALID,0,VALID,19.5259,VALID,61,VALID,0.0210193,
2007-09-25, 02:50:00,VALID,916.363,VALID,0,VALID,100,VALID,0,VALID,19.5388,VALID,61,VALID,0.00111607,
2007-09-25, 02:51:00,VALID,916.358,VALID,0,VALID,100,VALID,-0.0169808,VALID,19.5453,VALID,61,VALID,0,
2007-09-25, 02:52:00,VALID,916.347,VALID,0,VALID,100,VALID,-0.0169808,VALID,19.5548,VALID,61,VALID,0,
2007-09-25, 02:53:00,VALID,916.335,VALID,0,VALID,100,VALID,0.0339617,VALID,19.5453,VALID,61,VALID,0.190589,
2007-09-25, 02:54:00,VALID,916.327,VALID,0,VALID,100,VALID,0,VALID,19.5456,VALID,68,VALID,0.341933,
2007-09-25, 02:55:00,VALID,916.314,VALID,0,VALID,100,VALID,0,VALID,19.5453,VALID,71,VALID,0.437863,
2007-09-25, 02:56:00,VALID,916.308,VALID,0,VALID,100,VALID,0,VALID,19.5416,VALID,71,VALID,0.410689,
2007-09-25, 02:57:00,VALID,916.31,VALID,0,VALID,100,VALID,0.0339617,VALID,19.5416,VALID,71,VALID,0.354102,
2007-09-25, 02:58:00,VALID,916.312,VALID,0,VALID,100,VALID,0,VALID,19.5356,VALID,71,VALID,0.473899,
2007-09-25, 02:59:00,VALID,916.341,VALID,0,VALID,100,VALID,0.0339617,VALID,19.5321,VALID,71,VALID,0.330903,
2007-09-25, 03:00:00,VALID,916.372,VALID,0,VALID,100,VALID,0,VALID,19.5491,VALID,71,VALID,0.294398,
2007-09-25, 03:01:00,VALID,916.406,VALID,0,VALID,100,VALID,0,VALID,19.5354,VALID,73,VALID,0.425604,
2007-09-25, 03:02:00,VALID,916.439,VALID,0,VALID,100,VALID,0,VALID,19.5291,VALID,77,VALID,0.409091,
2007-09-25, 03:03:00,VALID,916.462,VALID,0,VALID,100,VALID,0,VALID,19.5354,VALID,115,VALID,0.580966,
2007-09-25, 03:04:00,VALID,916.466,VALID,0,VALID,100,VALID,0,VALID,19.5486,VALID,165,VALID,0.7766,
2007-09-25, 03:05:00,VALID,916.472,VALID,0,VALID,100,VALID,0.0509425,VALID,19.5453,VALID,171,VALID,0.625,
2007-09-25, 03:06:00,VALID,916.461,VALID,0,VALID,100,VALID,0.0169808,VALID,19.5516,VALID,175,VALID,0.531771,
2007-09-25, 03:07:00,VALID,916.462,VALID,0,VALID,100,VALID,-0.0679233,VALID,19.5628,VALID,176,VALID,0.523438,
2007-09-25, 03:08:00,VALID,916.456,VALID,0,VALID,100,VALID,-0.0849042,VALID,19.566,VALID,176,VALID,0.492365,
2007-09-25, 03:09:00,VALID,916.462,VALID,0,VALID,100,VALID,-0.0679233,VALID,19.5825,VALID,176,VALID,0.456174,
2007-09-25, 03:10:00,VALID,916.47,VALID,0,VALID,100,VALID,-0.0679233,VALID,19.5887,VALID,176,VALID,0.417225,
2007-09-25, 03:11:00,VALID,916.475,VALID,0,VALID,100,VALID,-0.0849042,VALID,19.6015,VALID,176,VALID,0.338423,
2007-09-25, 03:12:00,VALID,916.5,VALID,0,VALID,100,VALID,-0.0849042,VALID,19.6147,VALID,176,VALID,0.06875,
2007-09-25, 03:13:00,VALID,916.507,VALID,0,VALID,100,VALID,-0.0679233,VALID,19.6244,VALID,176,VALID,0.0373884,
2007-09-25, 03:14:00,VALID,916.514,VALID,0,VALID,100,VALID,-0.101885,VALID,19.6309,VALID,176,VALID,0,
2007-09-25, 03:15:00,VALID,916.515,VALID,0,VALID,100,VALID,-0.101885,VALID,19.6379,VALID,176,VALID,0,
2007-09-25, 03:16:00,VALID,916.511,VALID,0,VALID,100,VALID,-0.101885,VALID,19.6409,VALID,176,VALID,0,
2007-09-25, 03:17:00,VALID,916.506,VALID,0,VALID,100,VALID,-0.101885,VALID,19.6569,VALID,176,VALID,0,
2007-09-25, 03:18:00,VALID,916.503,VALID,0,VALID,100,VALID,-0.0849042,VALID,19.6699,VALID,176,VALID,0,
2007-09-25, 03:19:00,VALID,916.52,VALID,0,VALID,100,VALID,-0.118866,VALID,19.6766,VALID,176,VALID,0,
2007-09-25, 03:20:00,VALID,916.51,VALID,0,VALID,100,VALID,-0.101885,VALID,19.6828,VALID,176,VALID,0,
2007-09-25, 03:21:00,VALID,916.524,VALID,0,VALID,100,VALID,-0.101885,VALID,19.6901,VALID,176,VALID,0.0421875,
2007-09-25, 03:22:00,VALID,916.524,VALID,0,VALID,100,VALID,-0.0849042,VALID,19.6928,VALID,176,VALID,0.0193452,
2007-09-25, 03:23:00,VALID,916.544,VALID,0,VALID,100,VALID,-0.101885,VALID,19.7058,VALID,176,VALID,0,
2007-09-25, 03:24:00,VALID,916.545,VALID,0,VALID,100,VALID,-0.101885,VALID,19.7118,VALID,176,VALID,0,
2007-09-25, 03:25:00,VALID,916.564,VALID,0,VALID,100,VALID,-0.0849042,VALID,19.7083,VALID,176,VALID,0.0432413,
2007-09-25, 03:26:00,VALID,916.577,VALID,0,VALID,100,VALID,-0.0849042,VALID,19.7183,VALID,152,VALID,0.21875,
2007-09-25, 03:27:00,VALID,916.574,VALID,0,VALID,100,VALID,-0.101885,VALID,19.7158,VALID,69,VALID,0.734003,
2007-09-25, 03:28:00,VALID,916.581,VALID,0,VALID,100,VALID,-0.118866,VALID,19.6766,VALID,54,VALID,0.959766,
2007-09-25, 03:29:00,VALID,916.577,VALID,0,VALID,100,VALID,-0.0849042,VALID,19.6344,VALID,41,VALID,0.657493,
2007-09-25, 03:30:00,VALID,916.578,VALID,0,VALID,100,VALID,-0.101885,VALID,19.6112,VALID,37,VALID,0.692587,
2007-09-25, 03:31:00,VALID,916.583,VALID,0,VALID,100,VALID,-0.0849042,VALID,19.576,VALID,41,VALID,0.466211,
2007-09-25, 03:32:00,VALID,916.591,VALID,0,VALID,100,VALID,-0.0509425,VALID,19.5533,VALID,41,VALID,0.244727,
2007-09-25, 03:33:00,VALID,916.589,VALID,0,VALID,100,VALID,-0.118866,VALID,19.5563,VALID,41,VALID,0.00520833,
2007-09-25, 03:34:00,VALID,916.584,VALID,0,VALID,100,VALID,-0.0849042,VALID,19.5533,VALID,41,VALID,0,
2007-09-25, 03:35:00,VALID,916.596,VALID,0,VALID,100,VALID,-0.0849042,VALID,19.5533,VALID,41,VALID,0,
2007-09-25, 03:36:00,VALID,916.582,VALID,0,VALID,100,VALID,-0.101885,VALID,19.5406,VALID,41,VALID,0,
2007-09-25, 03:37:00,VALID,916.576,VALID,0,VALID,100,VALID,-0.0849042,VALID,19.5306,VALID,41,VALID,0,
2007-09-25, 03:38:00,VALID,916.583,VALID,0,VALID,100,VALID,-0.101885,VALID,19.5468,VALID,41,VALID,0,
2007-09-25, 03:39:00,VALID,916.592,VALID,0,VALID,100,VALID,-0.0849042,VALID,19.5595,VALID,41,VALID,0,
2007-09-25, 03:40:00,VALID,916.597,VALID,0,VALID,100,VALID,-0.0849042,VALID,19.5922,VALID,41,VALID,0,
2007-09-25, 03:41:00,VALID,916.601,VALID,0,VALID,100,VALID,-0.0679233,VALID,19.6082,VALID,41,VALID,0,
2007-09-25, 03:42:00,VALID,916.598,VALID,0,VALID,100,VALID,-0.0339617,VALID,19.611,VALID,41,VALID,0,
2007-09-25, 03:43:00,VALID,916.575,VALID,0,VALID,100,VALID,-0.0509425,VALID,19.6304,VALID,41,VALID,0,
2007-09-25, 03:44:00,VALID,916.568,VALID,0,VALID,100,VALID,-0.0679233,VALID,19.6499,VALID,41,VALID,0,
2007-09-25, 03:45:00,VALID,916.558,VALID,0,VALID,100,VALID,-0.0339617,VALID,19.6661,VALID,41,VALID,0,